Terminal Aerodrome Forecast
Issued by NWS

Home | Current Version | Previous Version | Text Only | Print | Product List | Glossary On
Versions: 1 2 3 4 5 6 7 8 9 10 11 12
000
FTUS46 KMTR 200500
TAFSTS
TAF
KSTS 200528Z 2006/2106 16005KT P6SM SCT200
     FM201100 VRB03KT P6SM SKC
     FM202000 19010KT P6SM SKC
     FM210400 15005KT P6SM SKC=

USA.gov is the U.S. government's official web portal to all federal, state and local government web resources and services.